Time,TemperatureF,DewpointF,PressureIn,WindDirection,WindDirectionDegrees,WindSpeedMPH,WindSpeedGustMPH,Humidity,HourlyPrecipIn,Conditions,Clouds,dailyrainin,SolarRadiationWatts/m^2,SoftwareType,DateUTC
2013-04-30 01:01:00,53.0,51.0,-100.00,South,173,4.0,9.0,93,-99.99,,,0.00,0.000000,,2013-04-30 06:01:00,
2013-04-30 01:21:00,53.0,51.0,-100.00,South,173,4.0,9.0,93,-99.99,,,0.00,0.000000,,2013-04-30 06:21:00,
2013-04-30 01:32:00,53.0,51.0,-100.00,South,173,4.0,9.0,93,-99.99,,,0.00,0.000000,,2013-04-30 06:32:00,
2013-04-30 01:42:00,53.0,51.0,-100.00,South,173,4.0,9.0,93,-99.99,,,0.00,0.000000,,2013-04-30 06:42:00,
2013-04-30 01:52:00,53.0,51.0,-100.00,South,173,4.0,9.0,93,-99.99,,,0.00,0.000000,,2013-04-30 06:52:00,
2013-04-30 03:01:00,53.0,50.0,-100.00,SSE,163,5.0,9.0,89,-99.99,,,0.00,0.000000,,2013-04-30 08:01:00,
2013-04-30 03:32:00,53.0,50.0,-100.00,SSE,163,5.0,9.0,89,-99.99,,,0.00,0.000000,,2013-04-30 08:32:00,
2013-04-30 03:42:00,53.0,50.0,-100.00,SSE,163,5.0,9.0,89,-99.99,,,0.00,0.000000,,2013-04-30 08:42:00,
2013-04-30 03:52:00,53.0,50.0,-100.00,SSE,163,5.0,9.0,89,-99.99,,,0.00,0.000000,,2013-04-30 08:52:00,
2013-04-30 04:01:00,52.0,49.0,-100.00,South,176,3.0,8.0,90,0.00,,,0.00,0.000000,,2013-04-30 09:01:00,
2013-04-30 04:22:00,52.0,49.0,-100.00,South,176,3.0,8.0,90,0.00,,,0.00,0.000000,,2013-04-30 09:22:00,
2013-04-30 04:33:00,52.0,49.0,-100.00,South,176,3.0,8.0,90,0.00,,,0.00,0.000000,,2013-04-30 09:33:00,
2013-04-30 04:43:00,52.0,49.0,-100.00,South,176,3.0,8.0,90,0.00,,,0.00,0.000000,,2013-04-30 09:43:00,
2013-04-30 04:52:00,52.0,49.0,-100.00,South,176,3.0,8.0,90,0.00,,,0.00,0.000000,,2013-04-30 09:52:00,
2013-04-30 06:01:00,52.0,51.0,-100.00,South,175,5.0,11.0,95,-99.99,,,0.00,1.000000,,2013-04-30 11:01:00,
2013-04-30 06:21:00,52.0,51.0,-100.00,South,175,5.0,11.0,95,-99.99,,,0.00,1.000000,,2013-04-30 11:21:00,
2013-04-30 06:32:00,52.0,51.0,-100.00,South,175,5.0,11.0,95,-99.99,,,0.00,1.000000,,2013-04-30 11:32:00,
2013-04-30 06:42:00,52.0,51.0,-100.00,South,175,5.0,11.0,95,-99.99,,,0.00,1.000000,,2013-04-30 11:42:00,
2013-04-30 06:51:00,52.0,51.0,-100.00,South,175,5.0,11.0,95,-99.99,,,0.00,1.000000,,2013-04-30 11:51:00,
2013-04-30 11:01:00,69.0,55.0,-100.00,SSW,204,11.0,23.0,62,-99.99,,,0.00,740.000000,,2013-04-30 16:01:00,
2013-04-30 11:23:00,69.0,55.0,-100.00,SSW,204,11.0,23.0,62,-99.99,,,0.00,740.000000,,2013-04-30 16:23:00,
2013-04-30 11:33:00,69.0,55.0,-100.00,SSW,204,11.0,23.0,62,-99.99,,,0.00,740.000000,,2013-04-30 16:33:00,
2013-04-30 11:42:00,69.0,55.0,-100.00,SSW,204,11.0,23.0,62,-99.99,,,0.00,740.000000,,2013-04-30 16:42:00,
2013-04-30 11:52:00,69.0,55.0,-100.00,SSW,204,11.0,23.0,62,-99.99,,,0.00,740.000000,,2013-04-30 16:52:00,
2013-04-30 13:01:00,76.0,54.0,-100.00,WSW,242,10.0,23.0,47,-99.99,,,0.00,842.000000,,2013-04-30 18:01:00,
2013-04-30 13:32:00,76.0,54.0,-100.00,WSW,242,10.0,23.0,47,-99.99,,,0.00,842.000000,,2013-04-30 18:32:00,
2013-04-30 13:42:00,76.0,54.0,-100.00,WSW,242,10.0,23.0,47,-99.99,,,0.00,842.000000,,2013-04-30 18:42:00,
2013-04-30 13:52:00,76.0,54.0,-100.00,WSW,242,10.0,23.0,47,-99.99,,,0.00,842.000000,,2013-04-30 18:52:00,
2013-04-30 14:01:00,78.0,52.0,-100.00,WSW,242,14.0,24.0,40,0.00,,,0.00,940.000000,,2013-04-30 19:01:00,
2013-04-30 14:22:00,78.0,52.0,-100.00,WSW,242,14.0,24.0,40,0.00,,,0.00,940.000000,,2013-04-30 19:22:00,
2013-04-30 14:32:00,78.0,52.0,-100.00,WSW,242,14.0,24.0,40,0.00,,,0.00,940.000000,,2013-04-30 19:32:00,
2013-04-30 14:42:00,78.0,52.0,-100.00,WSW,242,14.0,24.0,40,0.00,,,0.00,940.000000,,2013-04-30 19:42:00,
2013-04-30 14:52:00,78.0,52.0,-100.00,WSW,242,14.0,24.0,40,0.00,,,0.00,940.000000,,2013-04-30 19:52:00,
2013-04-30 15:01:00,78.0,50.0,-100.00,WSW,255,11.0,22.0,37,0.00,,,0.00,607.000000,,2013-04-30 20:01:00,
2013-04-30 15:32:00,78.0,50.0,-100.00,WSW,255,11.0,22.0,37,0.00,,,0.00,607.000000,,2013-04-30 20:32:00,
2013-04-30 15:42:00,78.0,50.0,-100.00,WSW,255,11.0,22.0,37,0.00,,,0.00,607.000000,,2013-04-30 20:42:00,
2013-04-30 15:52:00,78.0,50.0,-100.00,WSW,255,11.0,22.0,37,0.00,,,0.00,607.000000,,2013-04-30 20:52:00,
2013-04-30 16:01:00,70.0,46.0,-100.00,NNW,337,9.0,23.0,43,0.00,,,0.00,559.000000,,2013-04-30 21:01:00,
2013-04-30 16:32:00,70.0,46.0,-100.00,NNW,337,9.0,23.0,43,0.00,,,0.00,559.000000,,2013-04-30 21:32:00,
2013-04-30 16:42:00,70.0,46.0,-100.00,NNW,337,9.0,23.0,43,0.00,,,0.00,559.000000,,2013-04-30 21:42:00,
2013-04-30 16:53:00,70.0,46.0,-100.00,NNW,337,9.0,23.0,43,0.00,,,0.00,559.000000,,2013-04-30 21:53:00,
2013-04-30 17:01:00,72.0,46.0,-100.00,NNW,333,6.0,11.0,40,0.00,,,0.00,443.000000,,2013-04-30 22:01:00,
2013-04-30 17:23:00,72.0,46.0,-100.00,NNW,333,6.0,11.0,40,0.00,,,0.00,443.000000,,2013-04-30 22:23:00,
2013-04-30 17:33:00,72.0,46.0,-100.00,NNW,333,6.0,11.0,40,0.00,,,0.00,443.000000,,2013-04-30 22:33:00,
2013-04-30 17:42:00,72.0,46.0,-100.00,NNW,333,6.0,11.0,40,0.00,,,0.00,443.000000,,2013-04-30 22:42:00,
2013-04-30 17:53:00,72.0,46.0,-100.00,NNW,333,6.0,11.0,40,0.00,,,0.00,443.000000,,2013-04-30 22:53:00,
2013-04-30 18:01:00,68.0,46.0,-100.00,WNW,294,3.0,10.0,46,0.00,,,0.00,265.000000,,2013-04-30 23:01:00,
2013-04-30 18:22:00,68.0,46.0,-100.00,WNW,294,3.0,10.0,46,0.00,,,0.00,265.000000,,2013-04-30 23:22:00,
2013-04-30 18:32:00,68.0,46.0,-100.00,WNW,294,3.0,10.0,46,0.00,,,0.00,265.000000,,2013-04-30 23:32:00,
2013-04-30 18:42:00,68.0,46.0,-100.00,WNW,294,3.0,10.0,46,0.00,,,0.00,265.000000,,2013-04-30 23:42:00,
2013-04-30 18:52:00,68.0,46.0,-100.00,WNW,294,3.0,10.0,46,0.00,,,0.00,265.000000,,2013-04-30 23:52:00,
2013-04-30 19:01:00,66.0,40.0,-100.00,WNW,290,9.0,20.0,39,0.00,,,0.00,128.000000,,2013-05-01 00:01:00,
2013-04-30 19:22:00,66.0,40.0,-100.00,WNW,290,9.0,20.0,39,0.00,,,0.00,128.000000,,2013-05-01 00:22:00,
2013-04-30 19:32:00,66.0,40.0,-100.00,WNW,290,9.0,20.0,39,0.00,,,0.00,128.000000,,2013-05-01 00:32:00,
2013-04-30 19:42:00,66.0,40.0,-100.00,WNW,290,9.0,20.0,39,0.00,,,0.00,128.000000,,2013-05-01 00:42:00,
2013-04-30 19:52:00,66.0,40.0,-100.00,WNW,290,9.0,20.0,39,0.00,,,0.00,128.000000,,2013-05-01 00:52:00,
2013-04-30 20:01:00,62.0,39.0,-100.00,West,266,4.0,14.0,43,0.00,,,-99.99,63.000000,,2013-05-01 01:01:00,
2013-04-30 20:32:00,62.0,39.0,-100.00,West,266,4.0,14.0,43,0.00,,,-99.99,63.000000,,2013-05-01 01:32:00,
2013-04-30 20:42:00,62.0,39.0,-100.00,West,266,4.0,14.0,43,0.00,,,-99.99,63.000000,,2013-05-01 01:42:00,
2013-04-30 20:52:00,62.0,39.0,-100.00,West,266,4.0,14.0,43,0.00,,,-99.99,63.000000,,2013-05-01 01:52:00,
2013-04-30 21:01:00,60.0,37.0,-100.00,West,280,6.0,10.0,42,0.00,,,0.00,1.000000,,2013-05-01 02:01:00,
2013-04-30 21:22:00,60.0,37.0,-100.00,West,280,6.0,10.0,42,0.00,,,0.00,1.000000,,2013-05-01 02:22:00,
2013-04-30 21:32:00,60.0,37.0,-100.00,West,280,6.0,10.0,42,0.00,,,0.00,1.000000,,2013-05-01 02:32:00,
2013-04-30 21:42:00,60.0,37.0,-100.00,West,280,6.0,10.0,42,0.00,,,0.00,1.000000,,2013-05-01 02:42:00,
2013-04-30 21:52:00,60.0,37.0,-100.00,West,280,6.0,10.0,42,0.00,,,0.00,1.000000,,2013-05-01 02:52:00,
2013-04-30 22:01:00,56.0,36.0,-100.00,WSW,248,3.0,8.0,46,0.00,,,-99.99,0.000000,,2013-05-01 03:01:00,
2013-04-30 22:22:00,56.0,36.0,-100.00,WSW,248,3.0,8.0,46,0.00,,,-99.99,0.000000,,2013-05-01 03:22:00,
2013-04-30 22:33:00,56.0,36.0,-100.00,WSW,248,3.0,8.0,46,0.00,,,-99.99,0.000000,,2013-05-01 03:33:00,
2013-04-30 22:43:00,56.0,36.0,-100.00,WSW,248,3.0,8.0,46,0.00,,,-99.99,0.000000,,2013-05-01 03:43:00,
2013-04-30 22:53:00,56.0,36.0,-100.00,WSW,248,3.0,8.0,46,0.00,,,-99.99,0.000000,,2013-05-01 03:53:00,
2013-04-30 23:01:00,48.0,40.0,-100.00,SSE,157,1.0,3.0,73,0.00,,,-99.99,0.000000,,2013-05-01 04:01:00,
2013-04-30 23:23:00,48.0,40.0,-100.00,SSE,157,1.0,3.0,73,0.00,,,-99.99,0.000000,,2013-05-01 04:23:00,
2013-04-30 23:32:00,48.0,40.0,-100.00,SSE,157,1.0,3.0,73,0.00,,,-99.99,0.000000,,2013-05-01 04:32:00,
2013-04-30 23:43:00,48.0,40.0,-100.00,SSE,157,1.0,3.0,73,0.00,,,-99.99,0.000000,,2013-05-01 04:43:00,
2013-04-30 23:52:00,48.0,40.0,-100.00,SSE,157,1.0,3.0,73,0.00,,,-99.99,0.000000,,2013-05-01 04:52:00,